sat.trackr.live / text

‹ back to catalog

GOMX-1

NORAD 39430 · 2013-066Q

PAYLOAD ACTIVE UNKNOWN

§ Identity

Operator
Country
DEN
Launch date
2013-11-21
Launch site
DLS
Launch vehicle
Mass (kg)
RCS (m²)
0.05

Purposes: comms, tech_demo

External: N2YO · Heavens-Above · Gunter

§ Orbital elements

Epoch: 2026-09-15T22:43:58.706400Z

Period
97.98 min
Inclination
97.6432°
Eccentricity
0.0128639
Mean motion
14.69698066 rev/d
Perigee alt
571.5 km
Apogee alt
752.6 km
Semi-major
7,040.2 km
B*
2.3213e-4
RAAN
93.6898°
Arg perigee
145.2291°
Mean anomaly
215.7408°
Rev number
68,324

§ Raw data

GOMX-11 39430U 13066Q   26258.94720725  .00001520  00000+0  23213-3 0  99952 39430  97.6432  93.6898 0128639 145.2291 215.7408 14.69698066683243

JSON: /api/v1/satellites/39430 · /tle

For live sub-satellite position, see the globe view (requires WebGL).

§ Visibility from observer

Set your observer location to see the next 7 days of passes ≥ 10°. The values pass through the URL so the page stays shareable.

No JS? Fill the form by hand. The geolocation button needs JavaScript.

§ Radio — SatNOGS DB

ModeDescriptionDownlinkUplink
GMSK 4k8 GMSK 437.250 MHz
FM Mode X (8MHz) 8.198 GHz
CW PE0SAT - CW Beacon (inactive) 437.253 MHz

3 transmitters · refreshed weekly from db.satnogs.org